Regional Weather Roundup
Issued by NWS Upton, NY

Current Version | Previous Version | Text Only | Print | Product List | Glossary Off
Versions: 1 2 3 4 5 6 7 8 9 10 11 12 13 14 15 16 17 18 19 20 21 22 23 24 25 26 27 28 29 30 31 32 33 34 35 36 37 38 39 40 41 42 43 44 45 46 47 48 49 50
000 ASUS41 KOKX 261505 RWROKX REGIONAL WEATHER ROUNDUP NATIONAL WEATHER SERVICE NEW YORK NY 1000 AM EST MON JAN 26 2015 NOTE: "FAIR" INDICATES FEW OR NO CLOUDS BELOW 12,000 FEET WITH NO SIGNIFICANT WEATHER AND/OR OBSTRUCTIONS TO VISIBILITY. NYZ071-072-176-178-NJZ106-104-261600- NEW YORK CITY METRO AREA CITY SKY/WX TMP DP RH WIND PRES REMARKS CENTRAL PARK SNOW 24 17 74 NE16G24 30.01F VSB 1/2 WCI 11 LAGUARDIA APRT LGT SNOW 24 19 81 NE23 30.01S VSB 1 WCI 9 KENNEDY INTL LGT SNOW 26 20 77 NE17 30.00F WCI 13 NEWARK/LIBERTY LGT SNOW 23 20 88 NE14 30.00F WCI 11 BRNX BOT. GARD N/A N/A N/A N/A E9 30.01F TETERBORO LGT SNOW 21 16 79 NE10G18 30.01F VSB 3/4 WCI 10 $$ NYZ177-179-078>081-261600- LONG ISLAND NEW YORK CITY SKY/WX TMP DP RH WIND PRES REMARKS FARMINGDALE LGT SNOW 24 19 81 NE14G23 30.00F WCI 12 ISLIP LGT SNOW 23 17 78 NE16G25 30.00R VSB 1 WCI 10 SHIRLEY LGT SNOW 24 17 74 NE8 30.03S WCI 15 WESTHAMPTON FLURRIES 25 17 72 NE16 30.04S WCI 12 MONTAUK POINT N/A 26 21 81 NE12G21 30.05R WCI 16 $$ NYZ052-065-067-261600- HUDSON VALLEY CITY SKY/WX TMP DP RH WIND PRES REMARKS WHITE PLAINS LGT SNOW 20 9 62 E12G18 30.01R FOG WCI 8 NEWBURGH LGT SNOW 14 7 73 NE9 30.04R FOG WCI 2 MONTGOMERY LGT SNOW 15 5 64 NE10 30.03R WCI 2 POUGHKEEPSIE CLOUDY 17 4 56 N10 30.06R WCI 5 ALBANY CLOUDY 11 -2 56 NE10 30.12S WCI -3 $$ NJZ001-105-106-008-010-013-015-019>022-104-261600- NEW JERSEY CITY SKY/WX TMP DP RH WIND PRES REMARKS NEWARK/LIBERTY LGT SNOW 23 20 88 NE14 30.00F WCI 11 TETERBORO LGT SNOW 21 16 79 NE10G18 30.01F VSB 3/4 WCI 10 CALDWELL LGT SNOW 20 14 77 NE13G18 30.00F WCI 7 MORRISTOWN LGT SNOW 21 16 79 NE8G15 30.00F VSB 1 WCI 12 SOMERVILLE LGT SNOW 21 16 81 NE10 29.95F VSB 3/4 WCI 10 SUSSEX LGT SNOW 15 6 67 NE12 30.00R WCI 2 ANDOVER N/A 15 11 83 NE7 29.97S WCI 5 TRENTON LGT SNOW 24 19 81 NE15 29.92F WCI 11 MILLVILLE LGT RAIN 33 30 88 NE16G23 29.81F WCI 23 ATLANTIC CITY LGT SNOW 33 32 96 NE17 29.84F VSB 1 WCI 22 WRIGHTSTOWN LGT SNOW 28 25 86 NE16 29.88F FOG WCI 17 TOMS RIVER CLOUDY 32 30 93 NE14G20 29.90F WCI 22 BELMAR NOT AVBL $$ PAZ047>061-062-071-261600- EASTERN PENNSYLVANIA CITY SKY/WX TMP DP RH WIND PRES REMARKS PHILADELPHIA LGT SNOW 28 23 81 NE17G25 29.90F WCI 16 ALLENTOWN LGT SNOW 19 13 77 NE14 29.94F WCI 6 SCRANTON LGT SNOW 19 10 68 NE9G21 29.89S WCI 8 $$ CTZ002-004>006-009-010-012-RIZ004-006-007-MAZ004-011-015-261600- SOUTHERN NEW ENGLAND IN CT CITY SKY/WX TMP DP RH WIND PRES REMARKS BRADLEY INTL CLOUDY 14 0 53 N14 30.11S WCI -1 HARTFORD CLOUDY 16 2 54 N14 30.10F WCI 2 DANBURY CLOUDY 17 1 49 NE10 30.05R WCI 5 WTRBRY/OXFORD CLOUDY 16 -2 45 E8G18 30.02R WCI 5 BRIDGEPORT CLOUDY 20 10 65 NE13 30.07R WCI 7 MERIDEN CLOUDY 18 4 54 N8 30.09R WCI 8 NEW HAVEN CLOUDY 20 8 60 N12 30.07R WCI 8 CHESTER LGT SNOW 19 10 68 NE9 30.05R WCI 9 GROTON LGT SNOW 20 14 77 NE10 30.07R WCI 9 WILLIMANTIC CLOUDY 18 2 49 N7 30.08F WCI 9 IN RI CITY SKY/WX TMP DP RH WIND PRES REMARKS PROVIDENCE CLOUDY 17 7 64 N15 30.10F WCI 2 BLOCK ISLAND CLOUDY 25 18 74 NE15G23 30.03S WCI 12 WESTERLY LGT SNOW 20 12 71 NE8 30.08R WCI 10 IN MA CITY SKY/WX TMP DP RH WIND PRES REMARKS BOSTON FLURRIES 16 6 65 N12 30.14F WCI 3 WORCESTER FAIR 11 -1 58 NE7 30.05S WCI 0 WESTFIELD CLOUDY 13 -3 49 N12 30.12R WCI -1 PROVINCETOWN CLOUDY 30 18 59 NE12G23 30.11S WCI 21 NANTUCKET FLURRIES 33 23 66 E14 30.06R WCI 23 $$ ANZ330-335-338-340-345-350-353-355-261600- COASTAL MARINE OBSERVATIONS STATION/POSITION TIME SKY/WX TEMP WIND PRES VSBY WAVE AIR SEA DIR/SP/G HT/PER (UTC) (F) (DEG/KT/KT) (MB) (MI) (FT/S) NY HARB ENTRANCE 1500 30 43 50/ 25/ 31 1013.5 6/ 6 4S FIRE IS 1500 39 N/A 6/ 5 20S FIRE ISLAND 1400 41 1013.9 7/ 6 23SW MTP 1500 N/A 7/ 6 HUDSON CANYON NOT AVBL EXECUTION ROCKS 1500 24 35 50/ 21/ 29 N/A WESTERN LI SOUND 1500 23 60/ 19/ 25 N/A 4/ 5 CENTRAL LI SOUND 1400 23 36 70/ 16/ 23 N/A 2/ 4 EASTERN LI SOUND NOT AVBL ROBBINS REEF 1500 23 50/ 23/ 25 1014.1 $$ >>>>>>>>>>>>>>>>>>>>>>>>>>>> KEY <<<<<<<<<<<<<<<<<<<<<<<<<<< > < > SKY/WX - SKY CONDITION/PRESENT WEATHER < > TMP - TEMPERATURE IN FAHRENHEIT < > DP - DEWPOINT IN FAHRENHEIT < > RH - RELATIVE HUMIDITY IN PERCENT < > WIND - DIRECTION AND SPEED IN MPH < > PRES - MEAN SEA LEVEL PRESSURE IN INCHES OF HG < > WCI - WIND CHILL INDEX < > VSB - VISIBILITY IN MILES < > HX - HEAT INDEX < > TC - TEMPERATURE IN CELSIUS < > VRB - VARIABLE WIND DIRECTION < > < >>>>>>>>>>>>>>>>>>>>>>>>>>>> KEY <<<<<<<<<<<<<<<<<<<<<<<<<<<

USA.gov is the U.S. government's official web portal to all federal, state and local government web resources and services.